DLH436 EDDM-KORD

Flight info

Callsign DLH436
Flight time N/A
Altitude 36000
Route GIVMI6Q GIVMI Y101 TEKTU Z850 HMM L602 SPY DCT RAVLO Y70 OTBED L60 PENIL M144 BAGSO DCT ERNAN DCT NIBOG DCT BILTO/M084F360 DCT 5630N02000W 57N030W 57N040W 57N050W DCT DORYY/N0489F360 DCT BROME DCT GELLS DCT 50N076W DCT ODAXY WYNDE3
Aircraft A359/H-SDE2E3GHIJ3J4J5LM1ORWXY/LB1D1

Departure

Time N/A
Airport Munich Airport (EDDM)

Arrival

Time 2026-05-04 02:33
Airport Chicago O'Hare International Airport (KORD)
Time Latitude Longitude Altitude Speed Heading
2026-05-03 23:40 54.62915 -63.08377 38881 ft 475 kts 242°
2026-05-03 23:40 54.61542 -63.13559 38891 ft 475 kts 242°
2026-05-03 23:41 54.58790 -63.23907 38882 ft 475 kts 242°
2026-05-03 23:41 54.56028 -63.34249 38884 ft 475 kts 242°
2026-05-03 23:42 54.53271 -63.44524 38881 ft 476 kts 242°
2026-05-03 23:42 54.50489 -63.54847 38878 ft 476 kts 242°
2026-05-03 23:43 54.47694 -63.65174 38881 ft 476 kts 242°
2026-05-03 23:43 54.44894 -63.75470 38876 ft 475 kts 242°
2026-05-03 23:44 54.42108 -63.85671 38875 ft 475 kts 242°
2026-05-03 23:44 54.39293 -63.95928 38874 ft 475 kts 242°
2026-05-03 23:45 54.36466 -64.06184 39092 ft 475 kts 242°
2026-05-03 23:45 54.35054 -64.11292 39265 ft 475 kts 242°
2026-05-03 23:45 54.33633 -64.16417 39339 ft 476 kts 242°
2026-05-03 23:46 54.32230 -64.21471 39444 ft 476 kts 242°
2026-05-03 23:46 54.30805 -64.26588 39576 ft 476 kts 241°
2026-05-03 23:46 54.29378 -64.31704 39698 ft 476 kts 241°
2026-05-03 23:46 54.27951 -64.36807 39800 ft 476 kts 241°
2026-05-03 23:47 54.25085 -64.47024 39861 ft 476 kts 241°
2026-05-03 23:47 54.22227 -64.57167 39858 ft 476 kts 241°
2026-05-03 23:48 54.19344 -64.67355 39859 ft 476 kts 241°
2026-05-03 23:48 54.16453 -64.77528 39857 ft 476 kts 241°
2026-05-03 23:49 54.13550 -64.87697 39844 ft 477 kts 241°
2026-05-03 23:49 54.10651 -64.97805 39850 ft 478 kts 241°
2026-05-03 23:50 54.08196 -65.06332 39843 ft 479 kts 241°
2026-05-03 23:50 54.04780 -65.18150 39843 ft 479 kts 241°
2026-05-03 23:51 54.01832 -65.28301 39843 ft 479 kts 240°
2026-05-03 23:51 53.98873 -65.38444 39843 ft 479 kts 240°
2026-05-03 23:52 53.95925 -65.48507 39842 ft 479 kts 240°
2026-05-03 23:52 53.92947 -65.58629 39843 ft 479 kts 240°
2026-05-03 23:53 53.89960 -65.68737 39841 ft 479 kts 240°
2026-05-03 23:53 53.86963 -65.78835 39842 ft 480 kts 240°
2026-05-03 23:54 53.83975 -65.88862 39840 ft 480 kts 240°
2026-05-03 23:54 53.80956 -65.98951 39837 ft 480 kts 240°
2026-05-03 23:55 53.77929 -66.09024 39837 ft 480 kts 240°
2026-05-03 23:55 53.74894 -66.19078 39837 ft 480 kts 240°
2026-05-03 23:56 53.71872 -66.29050 39837 ft 480 kts 240°
2026-05-03 23:56 53.68820 -66.39077 39837 ft 480 kts 240°
2026-05-03 23:57 53.65761 -66.49086 39837 ft 480 kts 240°
2026-05-03 23:57 53.62713 -66.59017 39847 ft 480 kts 240°
2026-05-03 23:58 53.59637 -66.68998 39846 ft 480 kts 240°
2026-05-03 23:58 53.56549 -66.78976 39846 ft 480 kts 239°
2026-05-03 23:59 53.53457 -66.88928 39853 ft 480 kts 239°
2026-05-03 23:59 53.50353 -66.98877 39845 ft 480 kts 239°
2026-05-04 00:00 53.47140 -67.08611 39855 ft 480 kts 237°
2026-05-04 00:00 53.43696 -67.18189 39847 ft 479 kts 236°
2026-05-04 00:01 53.40246 -67.27751 39846 ft 479 kts 236°
2026-05-04 00:01 53.36825 -67.37331 39845 ft 479 kts 237°
2026-05-04 00:02 53.33438 -67.46844 39843 ft 479 kts 237°
2026-05-04 00:02 53.30020 -67.56415 39838 ft 479 kts 237°
2026-05-04 00:03 53.26597 -67.65958 39835 ft 479 kts 236°
2026-05-04 00:03 53.23161 -67.75498 39835 ft 479 kts 236°
2026-05-04 00:04 53.19744 -67.84945 39832 ft 479 kts 236°
2026-05-04 00:04 53.16295 -67.94446 39828 ft 479 kts 236°
2026-05-04 00:05 53.12835 -68.03942 39827 ft 479 kts 236°
2026-05-04 00:05 53.09366 -68.13426 39837 ft 479 kts 236°
2026-05-04 00:06 53.05917 -68.22822 39824 ft 479 kts 236°
2026-05-04 00:06 53.02436 -68.32271 39824 ft 479 kts 236°
2026-05-04 00:07 52.98950 -68.41695 39821 ft 479 kts 236°
2026-05-04 00:07 52.95454 -68.51111 39819 ft 479 kts 236°
2026-05-04 00:08 52.91971 -68.60457 39818 ft 479 kts 236°
2026-05-04 00:08 52.88459 -68.69844 39819 ft 479 kts 236°
2026-05-04 00:09 52.84942 -68.79211 39816 ft 479 kts 236°
2026-05-04 00:09 52.81415 -68.88570 39812 ft 479 kts 236°
2026-05-04 00:10 52.77907 -68.97845 39812 ft 479 kts 236°
2026-05-04 00:10 52.74364 -69.07178 39809 ft 479 kts 236°
2026-05-04 00:11 52.70818 -69.16485 39807 ft 479 kts 235°
2026-05-04 00:11 52.67263 -69.25780 39807 ft 479 kts 235°
2026-05-04 00:12 52.63726 -69.34994 39807 ft 479 kts 235°
2026-05-04 00:12 52.60159 -69.44254 39801 ft 479 kts 235°
2026-05-04 00:13 52.56587 -69.53493 39801 ft 479 kts 235°
2026-05-04 00:13 52.53027 -69.62665 39810 ft 479 kts 235°
2026-05-04 00:14 52.49439 -69.71877 39801 ft 479 kts 235°
2026-05-04 00:14 52.45840 -69.81087 39802 ft 479 kts 235°
2026-05-04 00:15 52.42235 -69.90275 39801 ft 479 kts 235°
2026-05-04 00:15 52.38623 -69.99449 39801 ft 479 kts 235°
2026-05-04 00:16 52.35030 -70.08542 39799 ft 479 kts 235°
2026-05-04 00:16 52.31408 -70.17678 39803 ft 479 kts 234°
2026-05-04 00:17 52.27778 -70.26799 39796 ft 479 kts 234°
2026-05-04 00:17 52.24139 -70.35909 39795 ft 479 kts 234°
2026-05-04 00:18 52.20516 -70.44947 39801 ft 479 kts 234°
2026-05-04 00:18 52.16858 -70.54041 39794 ft 480 kts 234°
2026-05-04 00:19 52.13193 -70.63121 39802 ft 480 kts 234°
2026-05-04 00:19 52.09516 -70.72196 39797 ft 480 kts 234°
2026-05-04 00:20 52.05861 -70.81187 39797 ft 480 kts 234°
2026-05-04 00:20 52.02175 -70.90223 39796 ft 480 kts 234°
2026-05-04 00:21 51.98481 -70.99247 39798 ft 480 kts 234°
2026-05-04 00:21 51.94782 -71.08250 39800 ft 480 kts 234°
2026-05-04 00:22 51.91099 -71.17181 39793 ft 480 kts 234°
2026-05-04 00:22 51.87377 -71.26178 39795 ft 481 kts 234°
2026-05-04 00:23 51.83644 -71.35170 39794 ft 482 kts 234°
2026-05-04 00:23 51.79904 -71.44149 39791 ft 482 kts 234°
2026-05-04 00:24 51.76178 -71.53059 39791 ft 482 kts 234°
2026-05-04 00:24 51.72424 -71.62007 39789 ft 482 kts 234°
2026-05-04 00:25 51.68661 -71.70947 39792 ft 482 kts 234°
2026-05-04 00:25 51.64894 -71.79864 39792 ft 482 kts 234°
2026-05-04 00:26 51.61116 -71.88776 39794 ft 482 kts 234°
2026-05-04 00:26 51.57352 -71.97623 39791 ft 483 kts 234°
2026-05-04 00:27 51.53556 -72.06517 39798 ft 483 kts 234°
2026-05-04 00:27 51.49749 -72.15408 39799 ft 483 kts 234°
2026-05-04 00:28 51.45939 -72.24273 39803 ft 483 kts 234°
2026-05-04 00:28 51.42148 -72.33063 39815 ft 483 kts 234°
2026-05-04 00:29 51.38324 -72.41901 39811 ft 483 kts 234°
2026-05-04 00:29 51.34492 -72.50728 39812 ft 483 kts 234°
2026-05-04 00:30 51.30983 -72.59885 39819 ft 484 kts 239°
2026-05-04 00:30 51.27745 -72.69247 39814 ft 485 kts 240°
2026-05-04 00:31 51.24445 -72.78626 39813 ft 485 kts 239°
2026-05-04 00:31 51.21080 -72.87940 39813 ft 484 kts 239°
2026-05-04 00:32 51.17687 -72.97210 39812 ft 484 kts 238°
2026-05-04 00:32 51.14308 -73.06402 39813 ft 484 kts 238°
2026-05-04 00:33 51.09194 -73.20268 39823 ft 484 kts 238°
2026-05-04 00:34 51.05775 -73.29503 39816 ft 485 kts 238°
2026-05-04 00:34 51.02346 -73.38730 39808 ft 485 kts 238°
2026-05-04 00:35 50.98936 -73.47874 39814 ft 485 kts 238°
2026-05-04 00:35 50.95493 -73.57074 39813 ft 485 kts 238°
2026-05-04 00:36 50.92044 -73.66254 39808 ft 485 kts 238°
2026-05-04 00:36 50.88588 -73.75423 39802 ft 485 kts 238°
2026-05-04 00:37 50.85148 -73.84517 39815 ft 485 kts 238°
2026-05-04 00:37 50.81674 -73.93667 39802 ft 486 kts 238°
2026-05-04 00:38 50.78186 -74.02821 39796 ft 486 kts 238°
2026-05-04 00:38 50.74691 -74.11962 39788 ft 486 kts 238°
2026-05-04 00:39 50.71191 -74.21085 39794 ft 486 kts 238°
2026-05-04 00:39 50.67704 -74.30139 39794 ft 486 kts 238°
2026-05-04 00:40 50.64193 -74.39227 39789 ft 486 kts 238°
2026-05-04 00:40 50.60674 -74.48300 39794 ft 486 kts 238°
2026-05-04 00:41 50.57143 -74.57375 39786 ft 486 kts 238°
2026-05-04 00:41 50.53609 -74.66425 39783 ft 486 kts 238°
2026-05-04 00:42 50.50089 -74.75409 39777 ft 486 kts 238°
2026-05-04 00:42 50.46542 -74.84429 39774 ft 486 kts 238°
2026-05-04 00:43 50.42986 -74.93442 39768 ft 486 kts 238°
2026-05-04 00:43 50.39425 -75.02436 39771 ft 486 kts 238°
2026-05-04 00:44 50.35878 -75.11364 39767 ft 486 kts 238°
2026-05-04 00:44 50.32298 -75.20344 39764 ft 487 kts 238°
2026-05-04 00:45 50.28707 -75.29321 39769 ft 487 kts 237°
2026-05-04 00:45 50.25112 -75.38279 39757 ft 487 kts 237°
2026-05-04 00:46 50.21530 -75.47170 39760 ft 487 kts 237°
2026-05-04 00:46 50.17922 -75.56099 39750 ft 487 kts 237°
2026-05-04 00:47 50.14305 -75.65018 39751 ft 487 kts 237°
2026-05-04 00:47 50.10681 -75.73925 39747 ft 487 kts 237°
2026-05-04 00:48 50.07049 -75.82820 39751 ft 487 kts 237°
2026-05-04 00:48 50.03438 -75.91634 39752 ft 487 kts 237°
2026-05-04 00:49 49.99609 -76.00296 39749 ft 486 kts 229°
2026-05-04 00:49 49.94991 -76.07957 39745 ft 486 kts 226°
2026-05-04 00:50 49.90281 -76.15471 39754 ft 486 kts 226°
2026-05-04 00:50 49.85592 -76.22914 39755 ft 486 kts 226°
2026-05-04 00:51 49.80864 -76.30391 39755 ft 486 kts 226°
2026-05-04 00:51 49.76129 -76.37859 39748 ft 486 kts 225°
2026-05-04 00:52 49.71384 -76.45319 39750 ft 487 kts 225°
2026-05-04 00:52 49.66667 -76.52712 39748 ft 487 kts 225°
2026-05-04 00:53 49.61909 -76.60148 39746 ft 487 kts 225°
2026-05-04 00:53 49.57153 -76.67559 39747 ft 486 kts 225°
2026-05-04 00:54 49.52388 -76.74964 39744 ft 486 kts 225°
2026-05-04 00:54 49.47653 -76.82300 39742 ft 486 kts 225°
2026-05-04 00:55 49.42877 -76.89676 39739 ft 486 kts 225°
2026-05-04 00:55 49.38100 -76.97033 39740 ft 486 kts 225°
2026-05-04 00:56 49.33321 -77.04372 39737 ft 487 kts 225°
2026-05-04 00:56 49.28559 -77.11664 39731 ft 487 kts 225°
2026-05-04 00:57 49.23762 -77.18988 39733 ft 487 kts 225°
2026-05-04 00:57 49.18967 -77.26288 39735 ft 487 kts 225°
2026-05-04 00:58 49.14163 -77.33580 39732 ft 487 kts 225°
2026-05-04 00:58 49.09388 -77.40807 39735 ft 487 kts 225°
2026-05-04 00:59 49.04576 -77.48070 39732 ft 487 kts 225°
2026-05-04 00:59 48.99764 -77.55311 39735 ft 487 kts 225°
2026-05-04 01:00 48.94975 -77.62498 39741 ft 487 kts 225°
2026-05-04 01:00 48.90147 -77.69721 39738 ft 487 kts 225°
2026-05-04 01:01 48.85311 -77.76937 39730 ft 487 kts 225°
2026-05-04 01:01 48.80470 -77.84139 39735 ft 487 kts 225°
2026-05-04 01:02 48.75622 -77.91332 39737 ft 487 kts 225°
2026-05-04 01:02 48.70806 -77.98456 39734 ft 487 kts 225°
2026-05-04 01:03 48.65951 -78.05617 39731 ft 487 kts 225°
2026-05-04 01:03 48.61090 -78.12767 39731 ft 487 kts 225°
2026-05-04 01:04 48.56228 -78.19899 39734 ft 487 kts 225°
2026-05-04 01:04 48.51390 -78.26974 39735 ft 487 kts 225°
2026-05-04 01:05 48.46527 -78.34066 39728 ft 486 kts 225°
2026-05-04 01:05 48.41663 -78.41142 39728 ft 486 kts 225°
2026-05-04 01:06 48.36800 -78.48195 39729 ft 486 kts 225°
2026-05-04 01:06 48.31966 -78.55187 39733 ft 486 kts 225°
2026-05-04 01:07 48.27092 -78.62216 39728 ft 486 kts 225°
2026-05-04 01:07 48.22214 -78.69232 39731 ft 486 kts 225°
2026-05-04 01:08 48.17338 -78.76226 39672 ft 486 kts 225°
2026-05-04 01:08 48.12449 -78.83219 39669 ft 486 kts 225°
2026-05-04 01:09 48.07595 -78.90142 39681 ft 486 kts 225°
2026-05-04 01:09 48.02699 -78.97107 39697 ft 486 kts 225°
2026-05-04 01:10 47.97796 -79.04062 39716 ft 486 kts 225°
2026-05-04 01:10 47.92891 -79.11001 39724 ft 486 kts 225°
2026-05-04 01:11 47.88011 -79.17886 39729 ft 486 kts 225°
2026-05-04 01:11 47.83095 -79.24802 39734 ft 486 kts 225°
2026-05-04 01:12 47.78181 -79.31697 39734 ft 486 kts 225°
2026-05-04 01:12 47.73258 -79.38585 39719 ft 486 kts 224°
2026-05-04 01:13 47.68369 -79.45407 39737 ft 485 kts 225°
2026-05-04 01:13 47.63446 -79.52258 39736 ft 485 kts 225°
2026-05-04 01:14 47.58516 -79.59101 39725 ft 485 kts 225°
2026-05-04 01:14 47.53586 -79.65924 39723 ft 485 kts 225°
2026-05-04 01:15 47.48690 -79.72683 39708 ft 485 kts 225°
2026-05-04 01:15 47.43752 -79.79482 39718 ft 485 kts 225°
2026-05-04 01:16 47.38813 -79.86263 39725 ft 485 kts 225°
2026-05-04 01:16 47.33872 -79.93029 39731 ft 485 kts 225°
2026-05-04 01:17 47.28957 -79.99742 39735 ft 485 kts 225°
2026-05-04 01:17 47.24007 -80.06483 39738 ft 485 kts 225°
2026-05-04 01:18 47.19051 -80.13216 39742 ft 485 kts 225°
2026-05-04 01:18 47.14090 -80.19938 39742 ft 485 kts 225°
2026-05-04 01:19 47.09154 -80.26608 39760 ft 485 kts 225°
2026-05-04 01:19 47.04184 -80.33306 39748 ft 485 kts 225°
2026-05-04 01:20 46.99211 -80.39990 39750 ft 485 kts 225°
2026-05-04 01:20 46.95072 -80.45539 39757 ft 485 kts 225°
2026-05-04 01:21 46.90094 -80.52198 39751 ft 485 kts 225°
2026-05-04 01:21 46.84306 -80.59918 39758 ft 485 kts 225°
2026-05-04 01:22 46.80159 -80.65435 39734 ft 485 kts 225°
2026-05-04 01:22 46.75171 -80.72056 39726 ft 485 kts 225°
2026-05-04 01:23 46.70174 -80.78670 39718 ft 485 kts 225°
2026-05-04 01:23 46.65176 -80.85268 39722 ft 485 kts 225°
2026-05-04 01:24 46.60210 -80.91809 39710 ft 485 kts 225°
2026-05-04 01:24 46.55212 -80.98373 39729 ft 484 kts 225°
2026-05-04 01:25 46.50215 -81.04919 39740 ft 484 kts 225°
2026-05-04 01:25 46.45218 -81.11448 39749 ft 484 kts 225°
2026-05-04 01:26 46.40249 -81.17923 39757 ft 483 kts 225°
2026-05-04 01:26 46.35260 -81.24409 39758 ft 482 kts 225°
2026-05-04 01:27 46.30267 -81.30883 39754 ft 482 kts 225°
2026-05-04 01:27 46.25273 -81.37342 39755 ft 482 kts 225°
2026-05-04 01:28 46.20310 -81.43744 39750 ft 482 kts 225°
2026-05-04 01:28 46.15301 -81.50190 39747 ft 482 kts 225°
2026-05-04 01:29 46.09480 -81.57660 39745 ft 482 kts 225°
2026-05-04 01:29 46.05279 -81.63037 39737 ft 482 kts 225°
2026-05-04 01:30 46.00288 -81.69412 39741 ft 484 kts 225°
2026-05-04 01:30 45.95249 -81.75830 39746 ft 484 kts 225°
2026-05-04 01:31 45.90206 -81.82237 39741 ft 484 kts 225°
2026-05-04 01:31 45.85158 -81.88636 39740 ft 484 kts 225°
2026-05-04 01:32 45.80142 -81.94976 39736 ft 484 kts 225°
2026-05-04 01:32 45.75083 -82.01356 39739 ft 484 kts 225°
2026-05-04 01:33 45.70025 -82.07719 39738 ft 484 kts 225°
2026-05-04 01:33 45.64964 -82.14069 39733 ft 484 kts 224°
2026-05-04 01:34 45.59941 -82.20355 39729 ft 483 kts 225°
2026-05-04 01:34 45.54877 -82.26677 39730 ft 484 kts 225°
2026-05-04 01:35 45.49809 -82.32990 39724 ft 484 kts 225°
2026-05-04 01:35 45.44739 -82.39287 39728 ft 483 kts 225°
2026-05-04 01:36 45.39704 -82.45527 39724 ft 483 kts 225°
2026-05-04 01:36 45.34633 -82.51796 39725 ft 483 kts 225°
2026-05-04 01:37 45.29556 -82.58056 39714 ft 483 kts 225°
2026-05-04 01:37 45.24480 -82.64301 39724 ft 482 kts 224°
2026-05-04 01:38 45.19442 -82.70483 39720 ft 482 kts 225°
2026-05-04 01:38 45.14364 -82.76700 39707 ft 482 kts 225°
2026-05-04 01:39 45.09282 -82.82905 39716 ft 482 kts 225°
2026-05-04 01:39 45.04198 -82.89098 39716 ft 482 kts 225°
2026-05-04 01:40 44.99140 -82.95244 39721 ft 482 kts 225°
2026-05-04 01:40 44.94047 -83.01418 39440 ft 482 kts 225°
2026-05-04 01:40 44.91502 -83.04497 39162 ft 482 kts 225°
2026-05-04 01:41 44.88956 -83.07574 38933 ft 481 kts 225°
2026-05-04 01:41 44.86412 -83.10645 38722 ft 481 kts 225°
2026-05-04 01:41 44.83874 -83.13705 38504 ft 481 kts 225°
2026-05-04 01:41 44.81363 -83.16729 38257 ft 481 kts 225°
2026-05-04 01:42 44.78824 -83.19784 37959 ft 481 kts 225°
2026-05-04 01:42 44.76280 -83.22840 37676 ft 481 kts 225°
2026-05-04 01:42 44.73737 -83.25892 37430 ft 481 kts 225°
2026-05-04 01:42 44.71190 -83.28943 37161 ft 481 kts 225°
2026-05-04 01:43 44.68644 -83.31991 36896 ft 481 kts 225°
2026-05-04 01:43 44.66090 -83.35045 36630 ft 481 kts 225°
2026-05-04 01:43 44.63542 -83.38088 36380 ft 481 kts 225°
2026-05-04 01:43 44.60992 -83.41128 36084 ft 481 kts 225°
2026-05-04 01:44 44.58473 -83.44130 35660 ft 481 kts 225°
2026-05-04 01:44 44.55925 -83.47161 35292 ft 481 kts 225°
2026-05-04 01:44 44.53367 -83.50202 34917 ft 482 kts 225°
2026-05-04 01:44 44.50812 -83.53235 34562 ft 482 kts 225°
2026-05-04 01:45 44.48253 -83.56269 34188 ft 482 kts 225°
2026-05-04 01:45 44.45692 -83.59301 33828 ft 482 kts 225°
2026-05-04 01:45 44.40614 -83.65303 33004 ft 478 kts 225°
2026-05-04 01:46 44.38085 -83.68285 32602 ft 474 kts 225°
2026-05-04 01:46 44.35575 -83.71243 32201 ft 470 kts 225°
2026-05-04 01:46 44.33084 -83.74173 31804 ft 466 kts 225°
2026-05-04 01:46 44.30618 -83.77073 31421 ft 462 kts 225°
2026-05-04 01:47 44.28169 -83.79949 31032 ft 458 kts 225°
2026-05-04 01:47 44.25741 -83.82799 30658 ft 454 kts 225°
2026-05-04 01:47 44.23333 -83.85622 30275 ft 450 kts 225°
2026-05-04 01:47 44.20974 -83.88383 29924 ft 447 kts 225°
2026-05-04 01:48 44.18599 -83.91162 29469 ft 444 kts 225°
2026-05-04 01:48 44.16245 -83.93911 29039 ft 441 kts 225°
2026-05-04 01:48 44.13900 -83.96649 28619 ft 438 kts 225°
2026-05-04 01:48 44.11573 -83.99362 28199 ft 436 kts 225°
2026-05-04 01:49 44.09258 -84.02058 27788 ft 433 kts 225°
2026-05-04 01:49 44.06959 -84.04732 27370 ft 430 kts 225°
2026-05-04 01:49 44.04680 -84.07381 26958 ft 427 kts 225°
2026-05-04 01:49 44.02435 -84.09987 26573 ft 425 kts 225°
2026-05-04 01:50 44.00175 -84.12608 26178 ft 422 kts 225°
2026-05-04 01:50 43.97927 -84.15212 25802 ft 419 kts 225°
2026-05-04 01:50 43.95709 -84.17779 25432 ft 417 kts 225°
2026-05-04 01:50 43.93489 -84.20345 25067 ft 414 kts 225°
2026-05-04 01:51 43.91282 -84.22895 24694 ft 411 kts 225°
2026-05-04 01:51 43.89089 -84.25425 24333 ft 409 kts 225°
2026-05-04 01:51 43.86908 -84.27940 23996 ft 407 kts 225°
2026-05-04 01:51 43.84769 -84.30403 23683 ft 405 kts 225°
2026-05-04 01:52 43.82601 -84.32898 23375 ft 405 kts 225°
2026-05-04 01:52 43.80530 -84.35279 23017 ft 403 kts 225°
2026-05-04 01:52 43.78400 -84.37725 22658 ft 401 kts 225°
2026-05-04 01:52 43.76260 -84.40179 22300 ft 399 kts 225°
2026-05-04 01:53 43.74130 -84.42619 21954 ft 396 kts 225°
2026-05-04 01:53 43.72016 -84.45040 21601 ft 394 kts 225°
2026-05-04 01:53 43.69908 -84.47452 21271 ft 392 kts 225°
2026-05-04 01:53 43.67813 -84.49846 20915 ft 390 kts 225°
2026-05-04 01:54 43.65727 -84.52228 20580 ft 388 kts 224°
2026-05-04 01:54 43.63677 -84.54566 20261 ft 386 kts 224°
2026-05-04 01:54 43.61612 -84.56921 19923 ft 384 kts 224°
2026-05-04 01:54 43.59557 -84.59261 19594 ft 382 kts 224°
2026-05-04 01:55 43.57509 -84.61590 19296 ft 380 kts 224°
2026-05-04 01:55 43.55472 -84.63905 18977 ft 379 kts 224°
2026-05-04 01:55 43.53445 -84.66207 18676 ft 377 kts 224°
2026-05-04 01:55 43.51425 -84.68498 18407 ft 375 kts 224°
2026-05-04 01:56 43.49413 -84.70780 18133 ft 374 kts 224°
2026-05-04 01:56 43.47432 -84.73023 17841 ft 373 kts 224°
2026-05-04 01:56 43.45431 -84.75287 17541 ft 371 kts 224°
2026-05-04 01:56 43.43439 -84.77539 17241 ft 370 kts 224°
2026-05-04 01:57 43.41456 -84.79778 16951 ft 368 kts 224°
2026-05-04 01:57 43.39487 -84.82000 16698 ft 365 kts 224°
2026-05-04 01:57 43.37525 -84.84212 16595 ft 365 kts 224°
2026-05-04 01:57 43.35565 -84.86421 16509 ft 364 kts 224°
2026-05-04 01:58 43.33633 -84.88596 16431 ft 363 kts 224°
2026-05-04 01:58 43.31679 -84.90794 16340 ft 363 kts 224°
2026-05-04 01:58 43.29730 -84.92983 16265 ft 361 kts 224°
2026-05-04 01:58 43.27786 -84.95166 16177 ft 360 kts 224°
2026-05-04 01:59 43.25848 -84.97340 16115 ft 360 kts 224°
2026-05-04 01:59 43.23912 -84.99510 16042 ft 359 kts 224°
2026-05-04 01:59 43.21978 -85.01677 15967 ft 359 kts 224°
2026-05-04 01:59 43.20045 -85.03840 15890 ft 359 kts 224°
2026-05-04 02:00 43.18113 -85.05999 15797 ft 358 kts 224°
2026-05-04 02:00 43.16205 -85.08131 15735 ft 358 kts 224°
2026-05-04 02:00 43.14275 -85.10286 15654 ft 358 kts 224°
2026-05-04 02:00 43.12343 -85.12439 15576 ft 358 kts 224°
2026-05-04 02:01 43.10416 -85.14586 15494 ft 357 kts 224°
2026-05-04 02:01 43.08495 -85.16725 15414 ft 356 kts 224°
2026-05-04 02:01 43.06574 -85.18862 15339 ft 356 kts 224°
2026-05-04 02:01 43.04656 -85.20993 15263 ft 355 kts 224°
2026-05-04 02:02 43.02740 -85.23121 15191 ft 355 kts 224°
2026-05-04 02:02 43.00851 -85.25217 15104 ft 354 kts 224°
2026-05-04 02:02 42.98942 -85.27333 15062 ft 354 kts 224°
2026-05-04 02:02 42.97032 -85.29450 15049 ft 354 kts 224°
2026-05-04 02:03 42.95133 -85.31549 15049 ft 344 kts 224°
2026-05-04 02:03 42.93319 -85.33545 15058 ft 325 kts 224°
2026-05-04 02:03 42.91600 -85.35436 15060 ft 311 kts 225°
2026-05-04 02:03 42.89926 -85.37289 15054 ft 310 kts 225°
2026-05-04 02:04 42.88251 -85.39144 15040 ft 311 kts 225°
2026-05-04 02:04 42.86570 -85.41004 15044 ft 311 kts 225°
2026-05-04 02:04 42.84912 -85.42834 15035 ft 311 kts 225°
2026-05-04 02:04 42.83230 -85.44688 15037 ft 312 kts 225°
2026-05-04 02:05 42.81562 -85.46583 15040 ft 311 kts 228°
2026-05-04 02:05 42.80092 -85.48671 15042 ft 306 kts 237°
2026-05-04 02:05 42.78773 -85.50939 15041 ft 306 kts 236°
2026-05-04 02:05 42.77419 -85.53177 15043 ft 306 kts 236°
2026-05-04 02:06 42.76069 -85.55418 15040 ft 306 kts 236°
2026-05-04 02:06 42.74729 -85.57671 15041 ft 306 kts 237°
2026-05-04 02:06 42.73395 -85.59929 15043 ft 306 kts 237°
2026-05-04 02:06 42.72085 -85.62156 15041 ft 306 kts 237°
2026-05-04 02:07 42.70757 -85.64418 15033 ft 306 kts 237°
2026-05-04 02:07 42.69432 -85.66676 15033 ft 306 kts 237°
2026-05-04 02:07 42.68108 -85.68932 15032 ft 306 kts 237°
2026-05-04 02:07 42.66782 -85.71190 15038 ft 306 kts 237°
2026-05-04 02:08 42.65455 -85.73449 15019 ft 306 kts 237°
2026-05-04 02:08 42.64131 -85.75702 15018 ft 306 kts 237°
2026-05-04 02:08 42.62802 -85.77962 15022 ft 306 kts 237°
2026-05-04 02:08 42.61477 -85.80214 15019 ft 306 kts 237°
2026-05-04 02:09 42.60167 -85.82437 15023 ft 306 kts 237°
2026-05-04 02:09 42.58839 -85.84689 15024 ft 305 kts 237°
2026-05-04 02:09 42.57511 -85.86942 15018 ft 305 kts 237°
2026-05-04 02:09 42.56182 -85.89193 15012 ft 306 kts 237°
2026-05-04 02:10 42.54855 -85.91440 15018 ft 306 kts 237°
2026-05-04 02:10 42.53526 -85.93688 15012 ft 305 kts 237°
2026-05-04 02:10 42.52197 -85.95933 15013 ft 305 kts 237°
2026-05-04 02:10 42.50870 -85.98174 15016 ft 305 kts 237°
2026-05-04 02:11 42.49561 -86.00384 15029 ft 305 kts 237°
2026-05-04 02:11 42.48231 -86.02627 15016 ft 305 kts 237°
2026-05-04 02:11 42.46902 -86.04866 15016 ft 305 kts 237°
2026-05-04 02:11 42.45592 -86.07072 15021 ft 305 kts 237°
2026-05-04 02:12 42.44262 -86.09309 15021 ft 305 kts 237°
2026-05-04 02:12 42.42931 -86.11548 15034 ft 305 kts 237°
2026-05-04 02:12 42.41600 -86.13783 15020 ft 305 kts 236°
2026-05-04 02:12 42.40286 -86.15989 15022 ft 305 kts 237°
2026-05-04 02:13 42.38957 -86.18219 15015 ft 305 kts 237°
2026-05-04 02:13 42.37622 -86.20458 15021 ft 306 kts 237°
2026-05-04 02:13 42.36287 -86.22693 15023 ft 306 kts 237°
2026-05-04 02:13 42.34951 -86.24929 15026 ft 306 kts 237°
2026-05-04 02:14 42.33613 -86.27168 15025 ft 306 kts 237°
2026-05-04 02:14 42.32276 -86.29401 15031 ft 306 kts 237°
2026-05-04 02:14 42.30939 -86.31634 15029 ft 306 kts 237°
2026-05-04 02:14 42.29658 -86.33772 15030 ft 305 kts 236°
2026-05-04 02:15 42.28320 -86.36004 15023 ft 306 kts 236°
2026-05-04 02:15 42.26981 -86.38234 15033 ft 305 kts 236°
2026-05-04 02:15 42.25643 -86.40462 15023 ft 306 kts 236°
2026-05-04 02:15 42.24330 -86.42646 15024 ft 306 kts 236°
2026-05-04 02:16 42.22991 -86.44872 15043 ft 306 kts 236°
2026-05-04 02:16 42.21652 -86.47097 15033 ft 306 kts 236°
2026-05-04 02:16 42.20328 -86.49295 15044 ft 306 kts 236°
2026-05-04 02:16 42.18995 -86.51506 15044 ft 306 kts 236°
2026-05-04 02:17 42.17661 -86.53718 15026 ft 306 kts 236°
2026-05-04 02:17 42.16323 -86.55934 15044 ft 306 kts 236°
2026-05-04 02:17 42.14981 -86.58156 15032 ft 306 kts 236°
2026-05-04 02:17 42.13675 -86.60316 15031 ft 307 kts 236°
2026-05-04 02:18 42.12289 -86.62618 14900 ft 330 kts 236°
2026-05-04 02:18 42.10821 -86.65058 14735 ft 347 kts 236°
2026-05-04 02:18 42.09291 -86.67580 14577 ft 350 kts 235°
2026-05-04 02:18 42.07916 -86.69839 14445 ft 350 kts 235°
2026-05-04 02:19 42.06600 -86.72000 14320 ft 350 kts 235°
2026-05-04 02:19 42.05262 -86.74199 14194 ft 349 kts 235°
2026-05-04 02:19 42.03857 -86.76508 14062 ft 348 kts 235°
2026-05-04 02:19 42.02390 -86.78918 13799 ft 347 kts 235°
2026-05-04 02:20 42.00882 -86.81393 13483 ft 345 kts 235°
2026-05-04 02:20 41.99361 -86.83888 13132 ft 344 kts 235°
2026-05-04 02:20 41.97850 -86.86366 12786 ft 342 kts 235°
2026-05-04 02:20 41.96365 -86.88833 12456 ft 340 kts 237°
2026-05-04 02:21 41.95214 -86.91452 12125 ft 332 kts 251°
2026-05-04 02:21 41.94708 -86.94361 11828 ft 325 kts 268°
2026-05-04 02:21 41.94749 -86.97331 11514 ft 323 kts 276°
2026-05-04 02:21 41.94916 -87.00234 11230 ft 322 kts 276°
2026-05-04 02:22 41.95089 -87.03199 10937 ft 321 kts 276°
2026-05-04 02:22 41.95255 -87.06154 10633 ft 320 kts 276°
2026-05-04 02:22 41.95415 -87.09102 10338 ft 312 kts 276°
2026-05-04 02:22 41.95566 -87.11943 10115 ft 300 kts 276°
2026-05-04 02:23 41.95706 -87.14613 9993 ft 284 kts 275°
2026-05-04 02:23 41.95840 -87.17185 9894 ft 270 kts 276°
2026-05-04 02:23 41.95967 -87.19636 9784 ft 262 kts 276°
2026-05-04 02:23 41.96091 -87.22011 9662 ft 263 kts 276°
2026-05-04 02:24 41.96219 -87.24468 9444 ft 263 kts 275°
2026-05-04 02:24 41.96344 -87.26897 9246 ft 256 kts 275°
2026-05-04 02:24 41.96466 -87.29295 9078 ft 260 kts 275°
2026-05-04 02:24 41.96575 -87.31722 8918 ft 262 kts 273°
2026-05-04 02:25 41.96586 -87.34131 8529 ft 261 kts 271°
2026-05-04 02:25 41.96571 -87.36567 8126 ft 259 kts 271°
2026-05-04 02:25 41.96564 -87.38976 7838 ft 258 kts 271°
2026-05-04 02:25 41.96562 -87.41380 7414 ft 256 kts 271°
2026-05-04 02:26 41.96562 -87.43760 7096 ft 253 kts 271°
2026-05-04 02:26 41.96565 -87.46127 6843 ft 253 kts 271°
2026-05-04 02:26 41.96568 -87.48491 6424 ft 252 kts 271°
2026-05-04 02:26 41.96571 -87.50837 6097 ft 250 kts 271°
2026-05-04 02:27 41.96578 -87.53128 5785 ft 245 kts 271°
2026-05-04 02:27 41.96581 -87.55404 5244 ft 243 kts 271°
2026-05-04 02:27 41.96582 -87.57688 5032 ft 247 kts 270°
2026-05-04 02:27 41.96581 -87.59976 4920 ft 240 kts 269°
2026-05-04 02:28 41.96565 -87.62184 4638 ft 234 kts 272°
2026-05-04 02:28 41.96613 -87.64358 4295 ft 231 kts 271°
2026-05-04 02:28 41.96618 -87.66500 3963 ft 227 kts 269°
2026-05-04 02:28 41.96608 -87.68598 3654 ft 223 kts 270°
2026-05-04 02:29 41.96611 -87.70636 3376 ft 211 kts 270°
2026-05-04 02:29 41.96611 -87.72499 3130 ft 192 kts 270°
2026-05-04 02:29 41.96610 -87.74219 2865 ft 177 kts 269°
2026-05-04 02:29 41.96607 -87.75815 2638 ft 167 kts 269°
2026-05-04 02:30 41.96603 -87.77348 2410 ft 161 kts 269°
2026-05-04 02:30 41.96602 -87.78786 2200 ft 146 kts 269°
2026-05-04 02:30 41.96606 -87.80078 2013 ft 132 kts 265°
2026-05-04 02:30 41.96599 -87.81255 1847 ft 122 kts 264°
2026-05-04 02:31 41.96594 -87.82383 1693 ft 121 kts 265°
2026-05-04 02:31 41.96589 -87.83515 1528 ft 125 kts 264°
2026-05-04 02:31 41.96590 -87.84710 1364 ft 130 kts 266°
2026-05-04 02:31 41.96580 -87.85945 1222 ft 136 kts 267°
2026-05-04 02:32 41.96575 -87.87259 1032 ft 148 kts 269°
2026-05-04 02:32 41.96589 -87.88708 798 ft 160 kts 266°
2026-05-04 02:32 41.96571 -87.90170 684 ft 148 kts 266°
2026-05-04 02:32 41.96566 -87.91410 674 ft 105 kts 271°
2026-05-04 02:33 41.96573 -87.92032 676 ft 47 kts 271°
2026-05-04 02:33 41.96573 -87.92423 676 ft 24 kts 272°
2026-05-04 02:33 41.96664 -87.92534 675 ft 19 kts 356°
2026-05-04 02:33 41.96780 -87.92536 674 ft 0 kts 359°
2026-05-04 02:35 41.96797 -87.92537 674 ft 6 kts 359°
2026-05-04 02:35 41.96865 -87.92537 673 ft 13 kts 360°
2026-05-04 02:35 41.96963 -87.92537 674 ft 8 kts 360°
2026-05-04 02:36 41.97025 -87.92537 674 ft 10 kts 360°
2026-05-04 02:36 41.97105 -87.92537 675 ft 13 kts
2026-05-04 02:36 41.97154 -87.92454 675 ft 14 kts 84°
2026-05-04 02:36 41.97157 -87.92301 675 ft 19 kts 91°
2026-05-04 02:37 41.97155 -87.92107 675 ft 22 kts 90°
2026-05-04 02:37 41.97154 -87.91900 675 ft 23 kts 90°
2026-05-04 02:37 41.97153 -87.91678 675 ft 24 kts 90°
2026-05-04 02:37 41.97153 -87.91444 675 ft 26 kts 90°
2026-05-04 02:38 41.97152 -87.91200 675 ft 27 kts 90°
2026-05-04 02:38 41.97150 -87.90951 675 ft 27 kts 90°
2026-05-04 02:38 41.97149 -87.90704 675 ft 25 kts 90°
2026-05-04 02:38 41.97141 -87.90462 675 ft 26 kts 92°
2026-05-04 02:39 41.97134 -87.90211 675 ft 27 kts 92°
2026-05-04 02:39 41.97137 -87.89952 675 ft 28 kts 84°
2026-05-04 02:39 41.97201 -87.89700 675 ft 30 kts 63°
2026-05-04 02:39 41.97220 -87.89532 675 ft 16 kts 120°
2026-05-04 02:40 41.97196 -87.89378 675 ft 18 kts 90°
2026-05-04 02:40 41.97195 -87.89196 675 ft 21 kts 90°
2026-05-04 02:40 41.97240 -87.89093 675 ft 12 kts 31°
2026-05-04 02:40 41.97276 -87.88998 675 ft 12 kts 83°
2026-05-04 02:41 41.97284 -87.88930 675 ft 7 kts 75°
2026-05-04 02:41 41.97311 -87.88903 675 ft 5 kts 11°
2026-05-04 02:41 41.97339 -87.88900 674 ft 0 kts
2026-05-04 02:41 41.97342 -87.88900 673 ft 3 kts
2026-05-04 02:42 41.97351 -87.88899 675 ft 0 kts